This is the latest recevied weather packets stored in our database for station/object DG0LHZ-10. If no packets are shown the sender has not sent any weather packets the latest 10 day(s).
| Time | Temp. | Humidity | Pressure | Rain* | Wind** | Luminosity | Snow |
|---|---|---|---|---|---|---|---|
| 1777389530 | 24.44° C | 24% | 1024.7 hPa | - | - | - | - |
| 1777388630 | 25° C | 25% | 1024.8 hPa | - | - | - | - |
| 1777387730 | 25° C | 25% | 1024.9 hPa | - | - | - | - |
| 1777386830 | 25° C | 25% | 1025.1 hPa | - | - | - | - |
| 1777385929 | 25° C | 25% | 1025.1 hPa | - | - | - | - |
| 1777385030 | 24.44° C | 26% | 1025.2 hPa | - | - | - | - |
| 1777384130 | 24.44° C | 26% | 1025.2 hPa | - | - | - | - |
| 1777383229 | 24.44° C | 26% | 1025.3 hPa | - | - | - | - |
| 1777382329 | 24.44° C | 27% | 1025.4 hPa | - | - | - | - |
| 1777381429 | 24.44° C | 27% | 1025.5 hPa | - | - | - | - |
| 1777380529 | 23.89° C | 28% | 1025.6 hPa | - | - | - | - |
| 1777379629 | 23.89° C | 28% | 1025.6 hPa | - | - | - | - |
| 1777378729 | 23.89° C | 28% | 1025.6 hPa | - | - | - | - |
| 1777377829 | 23.33° C | 29% | 1025.8 hPa | - | - | - | - |
| 1777376929 | 22.78° C | 30% | 1025.7 hPa | - | - | - | - |
| 1777376029 | 22.22° C | 31% | 1025.6 hPa | - | - | - | - |
| 1777375129 | 21.67° C | 31% | 1025.8 hPa | - | - | - | - |
| 1777374229 | 21.11° C | 32% | 1025.7 hPa | - | - | - | - |
| 1777373329 | 20.56° C | 34% | 1025.7 hPa | - | - | - | - |
| 1777372429 | 20° C | 35% | 1025.8 hPa | - | - | - | - |
| 1777371529 | 19.44° C | 36% | 1025.8 hPa | - | - | - | - |
| 1777370629 | 18.33° C | 37% | 1026 hPa | - | - | - | - |
| 1777369728 | 17.78° C | 38% | 1026 hPa | - | - | - | - |
| 1777368829 | 17.22° C | 38% | 1026 hPa | - | - | - | - |
| 1777367928 | 16.11° C | 39% | 1026 hPa | - | - | - | - |
* Rain since midnight (hover to see other rain measurements)
** Current wind speed in m/s (hover to see current wind gust speed)